Weather History for Madison, MN

Change the Weather History Date:

Saturday, June 8, 2013

  Actual Average (KAQP) Record (KAQP)
Temperature  
Mean Temperature 58 °F -  
Max Temperature 62 °F 73 °F 89 °F (2012)
Min Temperature 53 °F 52 °F 44 °F (2007)
Degree Days  
Heating Degree Days 8    
Growing Degree Days 8 (Base 50)    
Moisture  
Dew Point 51 °F    
Average Humidity 79    
Maximum Humidity 94    
Minimum Humidity 59    
Precipitation  
Precipitation 0.22 in - - ()
Sea Level Pressure  
Sea Level Pressure 29.83 in    
Wind  
Wind Speed 13 mph (SE)    
Max Wind Speed 21 mph    
Max Gust Speed 26 mph    
Visibility 9 miles    
Events Rain    
Averages and records for this station are not official NWS values.
T = Trace of Precipitation, MM = Missing Value Source: NWS Daily Summary

Daily Weather History Graph

Daily Weather History Graph

Search for Another Location

Airport:

Trip Planner

Search our weather history database for the weather conditions in past years. The results will help you decide how hot, cold, wet, or windy it might be!

Date:

Astronomy

Jun. 08, 2013 Rise Set
Actual Time 5:38 AM CDT 9:09 PM CDT
Civil Twilight 5:01 AM CDT 9:46 PM CDT
Nautical Twilight 4:12 AM CDT 10:35 PM CDT
Astronomical Twilight 3:09 AM CDT 11:39 PM CDT
Moon 5:49 AM CDT (6/8) 9:10 PM CDT (6/8)
Length of Visible Light 16h 45m
Length of Day
15h 31m
New Moon, 0% of the Moon is Illuminated
Jun 8
New Moon
Jun 16
First Quarter
Jun 23
Full
Jun 29
Last Quarter
Jul 8
New

Hourly Weather History & Observations

Time (CDT) Temp. Dew Point Humidity Pressure Visibility Wind Dir Wind Speed Gust Speed Precip Events Conditions
12:13 AM 57.2 °F 44.6 °F 63% 29.89 in 10.0 mi SE 10.4 mph - N/A   Clear
12:34 AM 57.2 °F 44.6 °F 63% 29.89 in 10.0 mi SE 9.2 mph - N/A   Clear
12:54 AM 57.2 °F 46.4 °F 67% 29.89 in 10.0 mi SE 10.4 mph - N/A   Clear
1:13 AM 57.2 °F 46.4 °F 67% 29.88 in 10.0 mi SE 9.2 mph - N/A   Clear
1:34 AM 57.2 °F 46.4 °F 67% 29.87 in 10.0 mi SE 9.2 mph - N/A   Clear
1:53 AM 57.2 °F 46.4 °F 67% 29.87 in 10.0 mi SE 10.4 mph - N/A   Scattered Clouds
2:14 AM 57.2 °F 46.4 °F 67% 29.87 in 10.0 mi SSE 10.4 mph - N/A   Mostly Cloudy
2:34 AM 57.2 °F 46.4 °F 67% 29.86 in 10.0 mi SSE 11.5 mph - N/A   Mostly Cloudy
2:53 AM 57.2 °F 46.4 °F 67% 29.85 in 10.0 mi SSE 11.5 mph - N/A   Scattered Clouds
3:14 AM 57.2 °F 46.4 °F 67% 29.85 in 10.0 mi SSE 11.5 mph - N/A   Clear
3:34 AM 57.2 °F 46.4 °F 67% 29.85 in 10.0 mi SE 9.2 mph - N/A   Clear
3:53 AM 57.2 °F 46.4 °F 67% 29.85 in 10.0 mi SSE 11.5 mph - N/A   Mostly Cloudy
4:14 AM 57.2 °F 46.4 °F 67% 29.85 in 10.0 mi SSE 10.4 mph - N/A   Overcast
4:34 AM 57.2 °F 46.4 °F 67% 29.84 in 10.0 mi SE 10.4 mph - N/A   Mostly Cloudy
4:53 AM 57.2 °F 46.4 °F 67% 29.85 in 10.0 mi SSE 9.2 mph - N/A   Scattered Clouds
5:14 AM 55.4 °F 46.4 °F 72% 29.83 in 10.0 mi SE 10.4 mph - N/A   Clear
5:34 AM 55.4 °F 46.4 °F 72% 29.82 in 10.0 mi SE 8.1 mph - N/A   Clear
5:54 AM 53.6 °F 46.4 °F 77% 29.83 in 10.0 mi ESE 10.4 mph - N/A   Clear
6:14 AM 55.4 °F 46.4 °F 72% 29.83 in 10.0 mi ESE 10.4 mph - N/A   Clear
6:34 AM 55.4 °F 46.4 °F 72% 29.83 in 10.0 mi ESE 10.4 mph - N/A   Clear
6:54 AM 55.4 °F 46.4 °F 72% 29.83 in 10.0 mi ESE 10.4 mph - N/A   Clear
7:14 AM 55.4 °F 46.4 °F 72% 29.83 in 10.0 mi ESE 9.2 mph - N/A   Clear
7:34 AM 57.2 °F 46.4 °F 67% 29.83 in 10.0 mi SE 9.2 mph - N/A   Clear
7:53 AM 57.2 °F 48.2 °F 72% 29.84 in 10.0 mi SE 11.5 mph - N/A   Scattered Clouds
8:14 AM 57.2 °F 46.4 °F 67% 29.84 in 10.0 mi SE 12.7 mph - N/A   Scattered Clouds
8:34 AM 59.0 °F 48.2 °F 67% 29.84 in 10.0 mi SE 15.0 mph 19.6 mph N/A   Scattered Clouds
8:53 AM 60.8 °F 48.2 °F 63% 29.83 in 10.0 mi SSE 12.7 mph - N/A   Mostly Cloudy
9:14 AM 60.8 °F 46.4 °F 59% 29.83 in 10.0 mi SSE 18.4 mph 23.0 mph N/A   Mostly Cloudy
9:34 AM 62.6 °F 48.2 °F 59% 29.83 in 10.0 mi SSE 18.4 mph 23.0 mph N/A   Scattered Clouds
9:53 AM 62.6 °F 48.2 °F 59% 29.83 in 10.0 mi SSE 20.7 mph 25.3 mph N/A   Clear
10:14 AM 60.8 °F 51.8 °F 72% 29.83 in 10.0 mi South 20.7 mph 26.5 mph N/A   Scattered Clouds
10:34 AM 60.8 °F 51.8 °F 72% 29.83 in 10.0 mi SSE 18.4 mph 25.3 mph N/A   Overcast
10:53 AM 59.0 °F 51.8 °F 77% 29.83 in 10.0 mi SSE 17.3 mph - N/A   Overcast
11:14 AM 59.0 °F 53.6 °F 82% 29.83 in 10.0 mi SSE 17.3 mph - N/A   Overcast
11:33 AM 57.2 °F 53.6 °F 88% 29.83 in 7.0 mi SSE 16.1 mph - N/A Rain Light Rain
11:54 AM 57.2 °F 53.6 °F 88% 29.83 in 10.0 mi SSE 17.3 mph - 0.03 in Rain Light Rain
12:13 PM 57.2 °F 55.4 °F 94% 29.83 in 10.0 mi SE 12.7 mph - 0.02 in Rain Light Rain
12:34 PM 59.0 °F 55.4 °F 88% 29.83 in 10.0 mi SSE 17.3 mph 23.0 mph 0.04 in Rain Light Rain
12:54 PM 59.0 °F 55.4 °F 88% 29.83 in 10.0 mi SSE 19.6 mph - 0.05 in Rain Light Rain
1:13 PM 57.2 °F 55.4 °F 94% 29.83 in 7.0 mi SE 17.3 mph - 0.01 in Rain Light Rain
1:34 PM 57.2 °F 53.6 °F 88% 29.83 in 10.0 mi SE 15.0 mph - 0.02 in Rain Light Rain
1:54 PM 57.2 °F 55.4 °F 94% 29.83 in 10.0 mi SE 15.0 mph - 0.04 in Rain Rain
2:13 PM 57.2 °F 53.6 °F 88% 29.82 in 10.0 mi SE 17.3 mph 23.0 mph 0.02 in Rain Light Rain
2:34 PM 59.0 °F 55.4 °F 88% 29.82 in 10.0 mi SE 17.3 mph 25.3 mph 0.03 in Rain Light Rain
2:54 PM 59.0 °F 55.4 °F 88% 29.81 in 10.0 mi SE 16.1 mph 25.3 mph 0.04 in Rain Light Rain
3:13 PM 59.0 °F 55.4 °F 88% 29.81 in 10.0 mi SE 20.7 mph 25.3 mph 0.01 in Rain Heavy Rain
3:34 PM 59.0 °F 55.4 °F 88% 29.82 in 10.0 mi ESE 18.4 mph 21.9 mph 0.03 in Rain Heavy Rain
3:53 PM 59.0 °F 53.6 °F 82% 29.82 in 10.0 mi ESE 18.4 mph - 0.04 in Rain Heavy Rain
4:14 PM 59.0 °F 55.4 °F 88% 29.83 in 10.0 mi ESE 17.3 mph 21.9 mph N/A Rain Light Rain
4:34 PM 59.0 °F 55.4 °F 88% 29.82 in 7.0 mi ESE 18.4 mph - N/A   Scattered Clouds
4:53 PM 59.0 °F 53.6 °F 82% 29.82 in 10.0 mi ESE 17.3 mph 23.0 mph N/A   Scattered Clouds
5:14 PM 59.0 °F 55.4 °F 88% 29.83 in 10.0 mi ESE 16.1 mph - N/A   Scattered Clouds
5:34 PM 59.0 °F 53.6 °F 82% 29.83 in 7.0 mi ESE 15.0 mph 24.2 mph N/A   Mostly Cloudy
5:53 PM 59.0 °F 53.6 °F 82% 29.83 in 10.0 mi ESE 18.4 mph 25.3 mph N/A   Mostly Cloudy
6:14 PM 57.2 °F 53.6 °F 88% 29.82 in 7.0 mi ESE 13.8 mph 24.2 mph N/A   Overcast
6:33 PM 59.0 °F 53.6 °F 82% 29.82 in 10.0 mi ESE 18.4 mph - N/A   Overcast
6:54 PM 57.2 °F 53.6 °F 88% 29.82 in 5.0 mi ESE 16.1 mph 23.0 mph N/A   Mostly Cloudy
7:14 PM 57.2 °F 55.4 °F 94% 29.82 in 4.0 mi ESE 16.1 mph - N/A   Mostly Cloudy
7:33 PM 57.2 °F 55.4 °F 94% 29.82 in 7.0 mi ESE 15.0 mph - N/A   Mostly Cloudy
7:54 PM 57.2 °F 55.4 °F 94% 29.82 in 7.0 mi ESE 15.0 mph - N/A   Mostly Cloudy
8:14 PM 59.0 °F 55.4 °F 88% 29.82 in 7.0 mi ESE 15.0 mph - N/A Rain Light Rain
8:33 PM 59.0 °F 55.4 °F 88% 29.82 in 7.0 mi ESE 15.0 mph - N/A   Drizzle
8:54 PM 59.0 °F 55.4 °F 88% 29.82 in 7.0 mi ESE 11.5 mph - N/A   Overcast
9:14 PM 59.0 °F 55.4 °F 88% 29.82 in 7.0 mi ESE 10.4 mph - N/A   Drizzle
9:33 PM 59.0 °F 55.4 °F 88% 29.82 in 7.0 mi ESE 9.2 mph - N/A Rain Light Rain
9:54 PM 59.0 °F 55.4 °F 88% 29.82 in 10.0 mi East 10.4 mph - N/A   Overcast
10:14 PM 59.0 °F 55.4 °F 88% 29.83 in 10.0 mi ESE 10.4 mph - N/A   Overcast
10:33 PM 57.2 °F 55.4 °F 94% 29.83 in 5.0 mi ESE 9.2 mph - N/A   Overcast
10:54 PM 57.2 °F 55.4 °F 94% 29.82 in 7.0 mi ESE 11.5 mph 20.7 mph 0.01 in Rain Rain
11:14 PM 57.2 °F 55.4 °F 94% 29.82 in 7.0 mi East 12.7 mph - N/A   Drizzle
11:33 PM 57.2 °F 55.4 °F 94% 29.81 in 10.0 mi East 11.5 mph - N/A   Drizzle
11:54 PM 57.2 °F 53.6 °F 88% 29.81 in 10.0 mi East 9.2 mph - 0.01 in Rain Light Rain